sat.trackr.live / text

‹ back to catalog

STARLINK-3250

NORAD 49749 · 2021-115AB

PAYLOAD ACTIVE UNKNOWN

§ Identity

Operator
Country
US
Launch date
2021-12-02
Launch site
AFETR
Launch vehicle
Mass (kg)
RCS (m²)

Purposes: comms

External: N2YO · Heavens-Above · Gunter

§ Orbital elements

Epoch: 2026-05-24T10:38:56.918976Z

Period
95.44 min
Inclination
53.2130°
Eccentricity
0.0001310
Mean motion
15.08838529 rev/d
Perigee alt
538.8 km
Apogee alt
540.7 km
Semi-major
6,917.9 km
B*
3.2209e-5
RAAN
169.2907°
Arg perigee
88.0818°
Mean anomaly
272.0324°
Rev number
24,696

§ Raw data

STARLINK-32501 49749U 21115AB  26144.44371434  .00000225  00000+0  32209-4 0  99982 49749  53.2130 169.2907 0001310  88.0818 272.0324 15.08838529246967

JSON: /api/v1/satellites/49749 · /tle

For live sub-satellite position, see the globe view (requires WebGL).

§ Visibility from observer

Set your observer location to see the next 7 days of passes ≥ 10°. The values pass through the URL so the page stays shareable.

No JS? Fill the form by hand. The geolocation button needs JavaScript.